Location: Via Auriletto, 13, 10098 Rivoli TO, Italia
(45.0746°N, 7.5214°E)
Time: 22:51:45
(UTC+01:00)

AO-73 - Visible Passes

Search period start: 13 November 2019 00:00
Search period end: 23 November 2019 00:00
Orbit: 583 x 662 km, 97.6° (Epoch: 13 November)

Date Brightness Start Highest point End Pass type
(mag) Time Alt. Az. Time Alt. Az. Time Alt. Az.
13 Nov ? 05:37:32 10° ENE 05:38:46 11° E 05:39:59 10° ESE visible
13 Nov ? 18:07:24 10° SSE 18:11:54 85° WSW 18:16:29 10° NNW visible
14 Nov ? 05:54:14 10° NE 05:57:11 17° E 06:00:04 10° SE visible
14 Nov ? 18:25:42 10° S 18:30:07 55° W 18:34:36 10° NNW visible
15 Nov ? 06:11:47 10° NE 06:15:32 25° E 06:19:12 10° SSE visible
15 Nov ? 18:44:14 10° SSW 18:48:22 36° W 18:52:35 10° NNW visible
16 Nov ? 06:29:38 10° NNE 06:33:51 38° E 06:37:57 10° SSE visible
16 Nov ? 17:26:14 10° SE 17:30:24 37° ENE 17:34:37 10° N visible
16 Nov ? 19:03:02 10° SSW 19:06:41 24° W 19:10:24 10° NW visible
17 Nov ? 06:47:39 10° NNE 06:52:07 60° E 06:56:26 10° S visible
17 Nov ? 17:44:05 10° SSE 17:48:30 57° ENE 17:52:59 10° N visible
17 Nov ? 19:22:15 10° SW 19:25:03 16° W 19:27:53 10° NW visible
18 Nov ? 18:02:08 10° SSE 18:06:39 87° ENE 18:11:15 10° NNW visible
18 Nov ? 19:42:48 10° W 19:43:29 10° W 19:44:09 10° WNW visible
19 Nov ? 05:49:16 10° NE 05:51:51 15° E 05:54:23 10° SE visible
19 Nov ? 18:20:22 10° S 18:24:51 62° W 18:29:24 10° NNW visible
20 Nov ? 06:06:42 10° NE 06:10:13 23° E 06:13:40 10° SE visible
20 Nov ? 18:38:50 10° SSW 18:43:05 40° W 18:47:25 10° NNW visible
21 Nov ? 06:24:28 10° NNE 06:28:32 34° E 06:32:30 10° SSE visible
21 Nov ? 17:21:04 10° SE 17:25:10 34° ENE 17:29:18 10° N visible
21 Nov ? 18:57:34 10° SSW 19:01:24 26° W 19:05:16 10° NW visible
22 Nov ? 06:42:27 10° NNE 06:46:49 53° E 06:51:02 10° S visible
22 Nov ? 17:38:51 10° SSE 17:43:15 51° ENE 17:47:42 10° N visible
22 Nov ? 19:16:40 10° SW 19:19:44 18° W 19:22:51 10° NW visible
